Regional Weather Roundup
Issued by NWS

Home | Current Version | Previous Version | Text Only | Print | Product List | Glossary Off
Versions: 1 2 3 4 5 6 7 8 9 10 11 12 13 14 15 16 17 18 19 20 21 22 23 24 25 26 27 28 29 30 31 32 33 34 35 36 37 38 39 40 41 42 43 44 45 46 47 48 49 50

000
ASUS43 KFSD 230910
RWRSD

WEATHER ROUNDUP FOR SOUTH DAKOTA
NATIONAL WEATHER SERVICE SIOUX FALLS SD
400 AM CDT THU OCT 23 2014

NOTE: "FAIR" INDICATES FEW OR NO CLOUDS BELOW 12,000 FEET WITH NO
SIGNIFICANT WEATHER AND/OR OBSTRUCTIONS TO VISIBILITY.


SDZ001>005-009-010-012>017-231000-
NORTHWEST AND NORTH CENTRAL SOUTH DAKOTA

CITY           SKY/WX    TMP DP  RH WIND       PRES   REMARKS
BUFFALO          N/A     40  27  59 W10       29.89S
FAITH            N/A     42  30  62 SW14      29.96F
MOBRIDGE       CLEAR     40  34  79 E5        29.93F
$$

SDZ012>016-024>037-041>051-057-063-072>074-231000-
SOUTHWEST AND SOUTH CENTRAL SOUTH DAKOTA

CITY           SKY/WX    TMP DP  RH WIND       PRES   REMARKS
RAPID CTY ARPT CLEAR     38  29  70 W7        30.00F
PIERRE         CLEAR     36  32  85 N3        29.97F
CUSTER         CLEAR     32  22  66 W5        30.07S WCI  27
ELLSWORTH AFB  CLEAR     40  29  63 W6        30.00F
PHILIP         CLEAR     32  28  85 W3        30.00F
PINE RIDGE     CLEAR     33  28  81 CALM      30.05R
SPEARFISH      FAIR      41  25  52 W3        30.01F
WINNER         FAIR      51  40  65 SW9       30.01F
$$

SDZ004>011-016>023-039-040-231000-
NORTHEAST SOUTH DAKOTA

CITY           SKY/WX    TMP DP  RH WIND       PRES   REMARKS
ABERDEEN       CLEAR     37  35  92 SW7       29.95S
WATERTOWN      FOG       41  40  96 S7        29.97F VSB 1/2
SISSETON         N/A     50  44  80 W13       29.92F
$$

SDZ017-020-022-023-036>040-048>070-231000-
SOUTHEAST SOUTH DAKOTA

CITY           SKY/WX    TMP DP  RH WIND       PRES   REMARKS
SIOUX FALLS    FOG       45  44  97 CALM      30.01F VSB 1/4
HURON          CLEAR     43  40  89 SW6       29.97F
CHAMBERLAIN    CLEAR     41  37  86 CALM      30.00F
MITCHELL       CLEAR     47  45  93 SW9       30.00F
YANKTON        MOCLDY    45  43  93 CALM      30.03S VSB 1/4
$$

ABBREVIATIONS USED IN REMARKS
   TC - TEMPERATURE IN CELSIUS
  WCI - WIND CHILL INDEX
   HX - HEAT INDEX
  VSB - VISIBILITY




USA.gov is the U.S. government's official web portal to all federal, state and local government web resources and services.